Powrót do katalogu

STARLINK-2610

AktywnyŁącznośćVLEO
NORAD 48376·PAYLOAD·🇺🇸 United States

Wystrzelony May 4, 2021 z Cape Canaveral Space Force Station

Loading…

Następne Przeloty (najbliższe 24 godziny)

TLE

ŚwieżeSource: CelesTrak SupGP

Epoka: Sep 15, 2026, 01:59 UTC

1 48376C 21038Z   26258.08312500  .00256730  00000+0  88745-3 0  2589
2 48376  53.1484 151.8177 0004779 130.2013 237.3314 15.88636025    10

Śledź STARLINK-2610 w czasie rzeczywistym z AllMySat

Download on the App Store